Location: Mentone
(34.5413°N, 85.5351°W)
Time: 21:52:28
(UTC-06:00)

Vanguard 1 - Visible Passes

Search period start: 23 November 2014 00:00
Search period end: 03 December 2014 00:00
Orbit: 652 x 3835 km, 34.3° (Epoch: 22 November)

Date Brightness Start Highest point End Pass type
(mag) Time Alt. Az. Time Alt. Az. Time Alt. Az.
23 Nov 13.0 01:01:37 28° E 01:01:37 28° E 01:05:45 10° E visible
23 Nov 11.6 03:14:22 72° W 03:16:26 86° S 03:26:34 10° ESE visible
23 Nov 11.6 05:27:07 13° W 05:38:19 45° SW 05:45:19 10° SE visible
23 Nov 13.4 20:03:21 10° SSW 20:15:43 30° SSE 20:15:43 30° SSE visible
23 Nov 13.9 22:23:44 10° SW 22:28:29 21° SW 22:28:29 21° SW visible
24 Nov 12.8 01:21:51 36° E 01:21:51 36° E 01:27:25 10° E visible
24 Nov 11.6 03:34:36 59° W 03:38:16 79° SSW 03:48:00 10° ESE visible
24 Nov 11.8 05:48:22 10° W 05:59:22 34° SW 06:05:58 10° SSE visible
24 Nov 13.9 18:14:14 10° SE 18:19:29 11° SE 18:23:20 11° ESE visible
24 Nov 13.3 20:23:22 10° SSW 20:36:06 36° S 20:36:06 36° S visible
24 Nov 14.0 22:45:22 10° WSW 22:48:52 18° SW 22:48:52 18° SW visible
25 Nov 12.5 01:42:05 46° E 01:42:05 46° E 01:49:04 10° E visible
25 Nov 11.6 03:54:50 47° W 03:59:58 71° SSW 04:09:19 10° ESE visible
25 Nov 13.6 18:28:53 10° SSE 18:40:42 18° SE 18:43:44 18° ESE visible
25 Nov 13.2 20:43:54 10° SSW 20:56:30 40° S 20:56:30 40° S visible
25 Nov 13.9 23:07:15 10° WSW 23:09:16 14° WSW 23:09:16 14° WSW visible
26 Nov 12.2 02:02:21 57° E 02:02:21 57° E 02:10:42 10° E visible
26 Nov 11.7 04:15:06 37° W 04:21:29 60° SSW 04:30:28 10° SE visible
26 Nov 13.4 18:47:07 10° S 19:01:54 26° SE 19:04:09 25° ESE visible
26 Nov 13.2 21:04:50 10° SW 21:16:55 42° SSW 21:16:55 42° SSW visible
26 Nov 13.7 23:29:22 10° WSW 00:09:52 13° E 00:10:37 10° E visible
27 Nov 12.0 02:22:37 69° ESE 02:22:37 69° ESE 02:32:16 10° ESE visible
27 Nov 11.8 04:35:23 29° W 04:42:46 48° SW 04:51:24 10° SE visible
27 Nov 13.2 19:06:30 10° S 19:23:08 34° SE 19:24:35 33° SE visible
27 Nov 13.3 21:26:05 10° SW 21:37:21 41° SW 21:37:21 41° SW visible
28 Nov 13.5 00:30:10 18° E 00:30:10 18° E 00:32:24 10° E visible
28 Nov 11.9 02:42:55 77° SSE 02:42:55 77° SSE 02:53:45 10° ESE visible
28 Nov 12.1 04:55:41 22° W 05:03:51 38° SW 05:12:03 10° SSE visible
28 Nov 13.8 17:18:42 10° SE 17:22:04 11° ESE 17:25:37 10° ESE visible
28 Nov 13.0 19:26:35 10° SSW 19:44:28 42° SE 19:45:01 42° SE visible
28 Nov 13.4 21:47:39 10° WSW 21:57:47 38° SW 21:57:47 38° SW visible
29 Nov 13.3 00:50:29 24° E 00:50:29 24° E 00:54:10 10° E visible
29 Nov 11.9 03:03:15 71° SSW 03:03:38 71° SSW 03:15:06 10° ESE visible
29 Nov 12.4 05:16:01 16° W 05:24:44 28° SW 05:32:17 10° S visible
29 Nov 13.6 17:32:43 10° SSE 17:43:03 18° SE 17:52:40 12° E visible
29 Nov 12.9 19:47:07 10° SSW 20:05:26 51° SE 20:05:26 51° SE visible
29 Nov 13.5 22:09:26 10° WSW 22:18:13 34° WSW 22:18:13 34° WSW visible
30 Nov 13.0 01:10:50 31° E 01:10:50 31° E 01:15:53 10° E visible
30 Nov 12.0 03:23:36 59° SW 03:25:14 61° SSW 03:36:16 10° SE visible
30 Nov 12.7 05:36:32 10° W 05:45:28 19° SW 05:51:50 10° SSW visible
30 Nov 13.4 17:51:00 10° S 18:04:01 25° SE 18:13:05 19° E visible
30 Nov 12.8 20:08:02 10° SW 20:25:51 59° SSE 20:25:51 59° SSE visible
30 Nov 13.6 22:31:27 10° WSW 22:38:37 28° WSW 22:38:37 28° WSW visible
01 Dec 12.8 01:31:12 38° ESE 01:31:12 38° ESE 01:37:32 10° ESE visible
01 Dec 12.1 03:43:58 48° WSW 03:46:35 51° SW 03:57:12 10° SE visible
01 Dec 13.0 06:02:04 10° WSW 06:06:06 12° WSW 06:09:33 10° SW visible
01 Dec 13.2 18:10:27 10° S 18:25:03 33° SE 18:33:29 26° E visible
01 Dec 12.8 20:29:15 10° SW 20:46:15 64° S 20:46:15 64° S visible
01 Dec 13.8 22:53:36 10° W 22:59:01 23° W 22:59:01 23° W visible
02 Dec 12.6 01:51:35 46° ESE 01:51:35 46° ESE 01:59:04 10° ESE visible
02 Dec 12.3 04:04:21 37° WSW 04:07:43 41° SW 04:17:51 10° SSE visible
02 Dec 13.0 18:30:32 10° SSW 18:46:13 42° SE 18:53:51 34° ESE visible
02 Dec 12.8 20:50:43 10° WSW 21:06:37 64° SW 21:06:37 64° SW visible
02 Dec 13.9 23:15:51 10° W 23:19:23 18° W 23:19:23 18° W visible
